Theta_e
309 310 310 309 308 309 309 311 311 312 313 314 320 323 324 327 330 332 331 331 331 332 331 331 329 328 326 326 326 325 324 323 323 320 320 321 323 323 323 321 322 321 323
307 308 306 306 306 307 308 309 311 313 313 313 316 323 325 327 329 329 330 331 330 331 331 330 329 328 327 326 326 324 322 322 323 318 316 312 316 320 322 322 323 321 322
306 303 304 303 304 304 305 308 311 313 317 316 316 320 323 324 326 328 328 330 330 330 329 330 328 328 327 326 325 324 322 320 321 322 317 310 307 311 318 320 322 322 322
303 303 302 301 301 302 304 306 309 308 311 311 318 319 320 320 322 325 327 328 329 329 328 328 328 327 327 325 325 325 324 322 319 319 321 321 318 312 310 314 315 317 318
302 301 300 300 300 300 300 302 304 303 303 306 309 311 314 315 314 315 315 314 312 309 311 314 317 321 325 326 325 324 323 323 322 320 317 315 317 317 312 310 312 316 317
300 298 299 299 297 297 298 298 299 299 301 302 304 304 303 304 305 305 306 307 304 303 303 305 308 310 311 312 315 320 322 321 321 321 320 317 313 312 311 310 312 311 314
298 297 296 294 294 294 295 296 295 295 298 298 298 299 299 298 297 299 298 298 298 297 298 299 301 301 302 303 303 309 310 308 310 311 313 316 317 317 316 314 311 310 313
297 296 294 293 292 293 293 293 293 292 293 293 293 293 294 294 293 293 293 292 292 293 294 295 296 297 297 297 299 301 301 302 300 299 299 303 304 303 305 306 306 307 309
294 293 292 291 290 290 291 291 291 290 291 291 290 288 289 289 289 289 289 289 289 290 290 292 293 293 293 294 296 296 294 296 296 295 296 296 297 298 297 299 301 300 298
293 292 290 289 289 289 289 289 290 288 288 289 287 287 287 287 287 287 286 287 287 288 289 290 290 290 291 291 291 292 291 292 293 292 292 292 293 294 295 296 295 294 293
292 290 289 288 287 287 287 287 287 286 286 287 285 285 285 285 285 284 285 285 286 286 287 287 288 288 288 288 288 288 288 289 289 290 290 290 291 291 291 290 291 292 292
292 290 289 287 286 286 285 285 286 284 284 285 284 284 284 283 283 282 283 284 283 284 285 286 286 286 285 286 286 286 286 286 287 288 289 288 289 287 287 288 288 287 289
292 290 288 287 285 284 284 283 284 283 283 283 282 282 281 281 281 281 282 282 282 283 283 284 283 284 284 284 285 285 285 286 286 286 285 285 285 284 284 284 285 286 286
292 288 287 287 284 283 283 282 282 282 282 281 281 280 280 280 280 280 281 281 281 281 282 282 282 283 283 283 283 283 284 284 284 285 284 283 283 281 282 282 282 282 281
291 289 288 287 284 282 281 281 281 280 280 280 279 278 279 279 279 279 280 280 280 280 280 281 281 282 282 283 282 281 282 282 282 282 282 283 282 283 282 281 280 280 279
291 290 289 287 285 282 281 281 279 279 280 278 277 278 278 278 278 278 278 279 279 279 279 279 279 280 281 283 283 281 280 280 279 279 279 280 280 280 280 281 282 281 279
292 290 289 287 286 282 281 279 278 279 278 277 277 277 277 277 277 277 277 277 277 277 277 278 278 278 278 282 282 280 279 278 278 278 277 277 278 278 278 280 280 280 281
294 292 289 287 284 280 279 278 278 278 277 276 276 276 276 276 276 276 276 276 276 276 276 277 277 277 277 280 281 279 278 277 277 277 277 276 277 277 278 277 276 276 276
296 293 290 285 278 277 277 277 278 277 276 275 275 275 275 275 274 274 274 275 275 275 275 276 276 275 275 279 280 277 276 276 275 276 276 276 275 277 279 276 274 273 275
291 286 281 278 276 276 277 277 276 276 275 275 275 275 274 274 273 273 274 274 275 275 275 275 275 275 274 277 279 277 275 274 273 274 274 276 275 277 277 274 272 271 273
281 278 277 275 275 276 277 277 276 275 275 274 273 273 273 273 273 272 272 273 273 273 272 273 274 274 274 274 277 277 274 274 271 271 272 273 275 275 276 275 271 272 273
277 276 274 273 274 276 277 275 274 273 273 272 272 271 271 272 272 267 270 270 270 269 269 268 270 271 273 274 275 276 276 275 270 270 271 271 273 273 273 271 273 273 270
274 274 273 272 274 276 276 273 271 271 270 270 269 269 270 270 270 267 268 268 267 267 268 269 267 268 271 271 273 273 274 273 271 271 271 270 271 271 269 269 270 267 265
273 272 271 271 271 273 274 271 270 269 268 267 268 268 268 268 268 270 270 267 265 265 267 265 263 264 267 268 270 271 270 271 270 269 265 267 267 267 266 264 265 264 264
272 272 271 270 269 269 268 268 267 266 267 267 267 268 267 266 267 268 267 268 268 267 261 259 261 259 258 266 272 271 269 268 269 260 257 259 261 260 260 260 261 261 260
271 270 269 268 267 266 264 263 264 266 267 266 266 266 266 265 266 265 265 269 268 268 269 269 267 265 269 270 271 272 271 270 269 252 250 255 257 257 258 257 257 258 258
Wind_Speed
8 7 5 8 9 9 9 9 9 9 6 3 3 3 4 3 4 7 8 9 8 9 6 7 7 5 5 7 7 5 7 6 4 3 6 7 9 8 8 6 9 10 9
8 5 8 9 8 8 8 8 7 8 7 5 4 4 4 4 3 4 6 7 8 9 7 4 5 5 4 5 6 5 3 2 2 3 2 3 3 8 10 9 9 10 7
8 5 8 9 9 8 7 7 7 8 8 10 5 3 1 1 1 3 5 8 10 9 8 6 4 4 3 3 5 4 5 6 3 7 4 3 4 2 4 9 8 9 7
6 7 8 8 7 6 7 7 7 9 10 11 9 4 3 3 1 3 5 3 1 2 2 4 4 4 3 4 4 4 5 5 5 3 7 9 6 5 4 2 4 4 6
8 8 8 7 6 5 5 6 7 7 8 9 9 7 9 6 5 6 9 10 9 11 9 8 9 8 3 3 4 4 5 6 6 4 3 3 4 6 5 9 4 3 7
8 9 7 6 6 5 5 6 6 7 9 10 11 11 11 8 7 9 8 7 7 7 11 10 9 9 8 8 8 8 6 5 4 4 4 4 3 3 3 5 9 10 6
8 7 7 6 5 5 6 5 7 7 9 11 12 10 11 11 11 9 7 8 7 7 10 10 9 8 9 9 8 9 10 9 9 10 8 7 6 5 7 7 10 8 7
7 7 7 6 6 5 6 6 7 7 7 8 11 11 12 8 8 9 7 7 6 6 9 9 9 10 11 10 8 7 8 10 10 13 11 7 8 9 8 8 11 11 8
8 7 7 6 6 6 5 6 6 6 7 7 8 8 8 9 8 9 8 6 7 8 8 8 9 10 10 10 9 9 9 9 9 9 10 8 9 8 7 7 7 6 9
9 8 7 7 5 5 5 6 6 6 6 7 6 6 7 7 7 7 8 7 7 7 8 8 9 9 10 11 10 8 10 9 8 8 10 8 7 7 6 8 8 6 6
8 8 7 7 6 5 5 5 5 6 5 5 5 6 6 6 7 7 7 6 6 7 8 8 9 9 12 12 10 10 11 11 9 9 9 10 9 7 8 8 7 7 9
9 8 8 8 7 6 5 5 5 6 5 5 5 6 6 6 6 6 7 7 7 7 8 8 9 11 11 11 11 11 10 9 10 10 10 11 9 11 10 8 11 9 9
8 8 8 8 8 8 7 6 5 5 5 5 5 5 5 5 6 6 6 7 7 8 9 9 9 11 11 11 11 10 9 9 9 9 10 10 11 10 10 9 9 8 9
10 9 8 8 8 8 7 6 5 5 5 5 5 5 5 5 5 6 6 7 6 8 8 8 9 11 10 11 11 9 9 8 9 9 10 10 11 12 11 10 11 11 10
13 12 13 10 9 8 7 7 6 5 5 5 5 5 5 4 5 6 6 6 6 7 7 7 8 9 10 9 11 9 7 8 8 8 9 8 11 16 18 10 12 12 11
16 17 14 12 12 12 9 8 7 6 6 5 5 5 5 4 5 5 5 5 6 7 7 7 7 9 8 16 18 11 7 8 8 8 9 8 10 13 19 20 21 16 13
19 20 20 16 14 14 12 9 8 6 6 6 5 4 5 5 4 4 5 5 6 5 6 6 6 7 8 16 18 15 6 7 8 9 9 9 8 11 12 16 18 15 20
22 17 15 15 12 11 10 10 8 7 7 7 6 5 6 5 4 3 5 5 4 5 4 5 6 6 7 15 17 14 6 7 7 8 8 8 9 13 15 13 13 12 12
16 18 15 12 13 13 11 10 9 8 8 8 8 7 7 4 4 4 4 3 4 5 4 4 5 5 5 13 16 11 6 7 7 8 7 8 10 22 24 14 12 12 10
10 13 14 15 15 12 12 11 10 9 9 9 8 7 6 5 5 3 4 2 3 5 3 4 5 5 5 11 15 13 5 7 7 7 8 14 18 22 22 12 11 12 14
16 15 15 14 12 12 11 11 10 10 9 8 7 6 4 3 5 3 2 2 4 3 2 3 2 4 6 6 13 15 7 6 6 7 7 8 22 21 20 19 11 15 18
14 12 13 12 11 11 10 11 10 9 8 8 7 6 3 3 4 3 2 3 2 2 3 4 4 3 4 7 11 15 14 13 6 7 7 9 19 18 18 13 21 23 17
11 11 12 12 10 10 10 11 10 8 7 7 7 5 5 4 3 5 3 3 3 3 3 3 2 1 3 3 10 12 14 12 8 7 12 17 16 16 12 18 20 15 8
9 9 11 11 10 8 9 10 9 8 7 7 7 7 5 4 2 3 3 3 3 3 3 2 2 1 2 3 4 3 4 8 8 9 7 11 11 12 11 9 10 9 9
9 11 10 10 10 9 10 8 8 8 7 6 5 6 5 5 3 4 3 3 3 3 3 1 1 2 3 4 10 10 6 5 9 5 3 4 5 6 6 6 7 7 8
10 10 11 11 11 11 9 7 6 6 7 7 5 3 4 4 3 2 2 5 4 3 3 3 2 1 6 11 12 13 14 14 13 4 2 3 5 6 6 7 7 7 8
Wind_Direction
271 260 59 59 43 29 11 357 342 322 310 288 222 207 211 224 210 187 183 193 211 248 227 213 220 221 223 234 238 244 236 246 245 278 265 260 261 262 255 236 245 249 254
277 290 76 63 47 31 13 345 322 310 302 295 262 196 190 213 199 169 167 184 205 226 258 245 212 206 213 234 230 229 253 257 186 245 270 272 260 236 240 243 249 246 246
264 75 70 63 47 26 358 334 333 333 341 332 290 280 208 355 34 173 207 204 200 209 223 233 229 219 216 226 229 223 214 252 231 214 229 273 244 311 231 231 233 238 246
118 88 68 59 48 14 354 348 17 11 1 358 355 278 178 195 275 352 37 79 3 253 326 270 231 218 218 227 233 231 232 222 245 220 219 232 245 273 282 315 292 270 256
107 97 89 87 70 32 9 358 30 23 14 26 28 37 56 53 45 48 58 54 50 45 33 32 32 21 330 263 239 242 237 243 256 259 262 266 262 263 274 295 272 241 238
105 97 95 93 72 34 24 15 39 33 31 35 40 52 59 52 54 44 46 48 42 33 30 21 24 26 19 15 9 351 305 271 253 264 273 274 271 266 241 275 294 288 278
128 131 121 91 71 47 31 36 36 37 36 43 40 42 55 57 53 53 48 43 41 30 22 18 24 26 22 25 8 20 30 16 19 23 12 346 306 293 278 277 279 279 289
125 122 128 125 103 70 46 50 41 36 39 47 44 37 39 50 47 42 46 46 31 34 21 16 27 31 31 23 21 27 26 26 27 27 16 360 8 2 358 353 346 322 306
140 149 137 121 109 92 65 60 61 49 35 50 54 47 42 49 51 44 45 47 34 34 24 23 30 33 32 26 27 47 27 29 26 28 19 10 16 357 353 355 359 349 322
152 150 144 128 112 111 93 72 72 69 49 51 52 55 52 53 58 53 45 40 42 34 33 32 42 37 41 39 35 39 25 28 25 32 16 17 3 5 353 11 3 353 328
158 155 147 135 128 113 100 92 79 76 56 67 60 62 57 53 56 56 44 39 43 33 36 39 45 40 50 37 34 36 33 34 23 25 16 16 6 14 17 4 351 353 349
159 154 143 144 155 148 131 118 101 96 67 65 67 57 53 60 64 59 54 37 46 44 48 51 50 53 45 39 39 32 28 28 30 22 22 21 16 15 5 4 8 347 337
156 158 160 171 171 165 151 130 115 98 85 80 72 67 61 61 61 61 53 51 49 43 45 49 52 59 45 35 27 28 22 24 29 24 22 20 15 11 5 2 356 353 335
176 178 175 187 168 154 149 137 127 116 104 97 88 73 65 65 66 61 62 59 54 60 54 46 54 67 48 39 29 14 25 26 35 31 24 20 25 9 6 8 358 348 339
188 190 195 186 164 155 143 139 137 126 126 115 102 95 75 62 64 66 59 57 52 60 67 62 52 64 51 34 32 10 28 34 30 29 26 22 35 15 17 358 352 345 342
199 202 195 186 171 164 162 159 148 150 132 120 115 110 98 79 72 74 72 71 61 54 52 56 67 59 50 38 33 30 22 34 26 22 20 15 21 16 5 360 356 353 347
200 201 197 185 178 172 159 158 148 145 136 133 121 103 102 93 62 70 72 52 64 61 57 55 43 76 47 35 33 32 22 31 22 22 13 10 12 0 356 354 354 354 349
209 200 188 181 163 144 140 132 143 147 140 124 125 129 110 105 96 83 83 70 73 67 56 58 53 56 42 32 32 30 25 29 21 18 13 6 8 354 354 357 351 352 345
205 196 180 153 130 133 135 144 154 143 142 150 146 136 125 117 113 94 81 55 68 73 72 75 72 56 43 28 29 33 24 18 15 7 7 358 4 356 356 355 348 341 331
158 137 130 130 133 136 138 148 156 160 158 153 143 129 138 129 116 96 90 75 76 83 72 66 79 60 60 21 26 31 20 10 9 353 360 5 2 356 354 353 352 336 339
117 118 127 135 136 138 144 156 157 165 149 135 128 127 141 119 95 111 109 86 74 82 77 68 84 64 63 20 22 15 27 15 6 351 357 357 350 351 352 358 344 342 342
121 124 123 125 132 145 154 154 159 141 138 137 140 138 148 122 133 129 92 77 73 102 88 70 53 40 55 16 17 9 14 7 9 352 349 346 345 348 351 356 348 349 347
128 127 129 130 143 154 155 150 136 134 136 139 146 145 137 143 146 99 82 97 60 65 55 64 57 5 26 28 4 5 3 359 7 344 348 343 345 351 353 350 351 351 341
133 125 131 139 137 136 135 125 130 128 145 154 155 151 141 133 75 103 100 93 62 59 58 66 28 339 5 357 310 8 347 351 359 7 355 344 350 358 356 351 350 345 339
140 142 143 143 136 112 109 113 124 143 158 147 152 147 133 106 104 86 84 93 88 113 130 174 132 68 337 313 335 349 347 346 345 38 359 338 351 348 347 347 337 335 335
145 144 143 139 136 125 119 120 139 161 156 157 151 136 119 100 106 111 126 133 110 80 90 52 61 44 336 337 332 344 342 353 352 40 341 332 339 338 335 337 333 329 329